[[{"header":{"parameterUnit":"m.s-1","parameterCategory":1,"la1":30.2991,"la2":30.254,"lo1":-89.0895,"lo2":-89.0444,"dy":0.0017,"dx":0.0017,"nx":28,"ny":28,"refTime":"2023-04-02T21:00:00:Z","depth":0,"parameterNumber":2,"parameterNumberName":"U-component_of_WINDS"},"data":[0,0,0,0,0,0,0,0,0,0,0,0,0,0,0,0,0,0,0,0,0,0,0,0,0,0,0,0,0,0,0,0,0,0,0,0,0,0,0,0,0,0,0,0,0,0,0,0,0,0,0,0,0,0,0,0,0,0,2.3766,2.3766,0,2.3785,2.3785,2.3786,2.3761,2.376,2.3759,2.3758,2.3777,2.3779,2.378,0,0,0,0,0,0,0,0,0,0,0,0,0,2.3706,2.3708,2.3766,2.3766,2.3766,2.3785,2.3786,2.3786,2.3761,2.376,2.3759,2.3757,2.3777,2.3778,2.378,0,0,0,0,0,0,0,0,0,0,0,0,0,2.373,2.3708,2.3766,2.3756,2.3756,2.3785,2.3786,2.3786,2.3761,2.376,2.3758,2.3757,2.3776,2.3778,2.378,2.382,0,0,2.3787,2.3787,0,0,0,0,0,0,0,0,2.3728,2.3732,2.3757,2.3757,2.3756,2.3769,2.3772,2.3797,2.3761,2.3759,2.3758,2.3756,2.3776,2.3778,2.3784,2.3821,2.3822,2.3787,2.3788,2.3789,2.3789,0,0,0,0,0,0,0,2.3727,2.3731,2.3774,2.3758,2.3757,2.3751,2.3752,2.3776,2.3775,2.3759,2.3757,2.376,2.3775,2.3782,2.3785,2.3822,2.3787,2.3789,2.379,2.3791,2.3892,2.3894,0,0,0,0,0,0,2.3726,2.373,2.3773,2.3774,2.3739,2.3753,2.3755,2.3766,2.3774,2.3774,2.3761,2.3759,2.378,2.3782,2.3785,2.3832,2.3789,2.3791,2.3792,2.3891,2.3893,2.3894,0,0,0,0,0,0,2.3725,2.373,2.3772,2.3751,2.3756,2.3755,2.3768,2.3767,2.3775,2.3776,2.3775,2.3769,2.3779,2.3782,2.3812,2.3832,2.3792,2.3794,2.3889,2.3892,2.3894,2.3927,0,0,0,0,0,0,2.3724,2.373,2.3746,2.3752,2.3757,2.3799,2.377,2.3769,2.3778,2.3775,2.3783,2.3783,2.3778,2.3809,2.3814,2.3835,2.3795,2.3887,2.389,2.3893,2.3924,2.393,2.3935,0,0,0,0,0,2.3722,2.3754,2.3747,2.3752,2.3777,2.38,2.3803,2.3796,2.378,2.3795,2.3796,2.3783,2.3829,2.3812,2.3817,2.3839,2.3886,2.3889,2.3893,2.3921,2.3929,2.3935,0,0,0,0,0,0,2.375,2.3755,2.3746,2.3782,2.3791,2.3796,2.3815,2.3805,2.3818,2.3815,2.3806,2.3808,2.3839,2.3842,2.3822,2.3878,2.3855,2.386,2.3875,2.3882,2.3887,2.3886,2.3797,0,0,0,0,0,2.3761,2.3779,2.3782,2.3814,2.3818,2.3816,2.3826,2.382,2.3829,2.3832,2.3835,2.3844,2.386,2.3871,2.3886,2.3924,2.3925,2.3942,2.3947,2.3952,2.3956,2.3976,2.3983,2.3905,2.3905,2.3905,0,0,2.3783,2.3787,2.38,2.3819,2.3826,2.3845,2.3819,2.3841,2.3855,2.3835,2.3863,2.3866,2.3875,2.3908,2.3923,2.3912,2.3978,2.3956,2.396,2.3961,2.398,2.3987,2.3994,2.3908,2.3907,2.3907,0,0,2.3832,2.3838,2.3864,2.3871,2.388,2.3879,2.3885,2.3891,2.3892,2.392,2.3906,2.3922,2.3951,2.3958,2.3965,2.4017,2.4005,2.4022,2.4051,2.4071,2.4077,2.4082,2.4101,2.4107,2.4026,2.4026,2.4026,0,2.3858,2.3887,2.3879,2.3902,2.3911,2.3894,2.392,2.3927,2.3941,2.3947,2.3934,2.397,2.3975,2.401,2.4022,2.4029,2.4036,2.4021,2.4077,2.4082,2.4087,2.4104,2.4111,2.4028,2.4028,2.4028,2.4028,0,2.3918,2.3938,2.3958,2.3972,2.3984,2.4008,2.4004,2.4016,2.4009,2.4008,2.4037,2.4042,2.4058,2.4066,2.4059,2.41,2.4092,2.4078,2.4055,2.4096,2.4113,2.4119,2.4031,2.403,2.403,2.4029,0,0,2.3986,2.3996,2.4003,2.4009,2.4018,2.4034,2.4057,2.4073,2.4083,2.4093,2.4113,2.4137,2.4124,2.4132,2.4126,2.4144,2.4184,2.4127,2.4127,2.4138,2.4229,2.4239,2.4247,2.4176,2.4177,2.4178,2.4228,0,2.4036,2.4077,2.407,2.411,2.4128,2.4112,2.4133,2.414,2.414,2.4155,2.4155,2.4173,2.4154,2.4159,2.4175,2.4176,2.4202,2.4172,2.4194,2.4195,2.4192,2.4255,2.4267,2.4313,2.4234,2.4235,2.4236,0,2.4099,2.4111,2.4153,2.4159,2.4166,2.4185,2.4198,2.4213,2.4222,2.422,2.4229,2.422,2.4243,2.422,2.4251,2.4231,2.4239,2.4241,2.4242,2.4244,2.4218,2.4259,2.4328,2.4335,2.4246,2.4245,2.4244,0,2.4144,2.4171,2.42,2.4205,2.4213,2.4227,2.423,2.4237,2.4247,2.4259,2.4265,2.4279,2.4287,2.4298,2.4293,2.4276,2.4326,2.4301,2.4325,2.4325,2.4336,2.4335,2.4407,2.4342,2.4342,2.4341,2.4341,0,2.42,2.4226,2.422,2.4238,2.4266,2.4258,2.4286,2.4288,2.4294,2.4311,2.4299,2.4315,2.4307,2.4323,2.4319,2.4345,2.4349,2.4348,2.4347,2.435,2.435,2.4355,2.4351,2.4343,2.4343,2.4343,2.4342,0,2.4255,2.4253,2.4282,2.4287,2.4289,2.431,2.4314,2.433,2.4329,2.4351,2.4355,2.4354,2.4371,2.4367,2.4387,2.4384,2.4417,2.4412,2.4415,2.4413,2.4437,2.4435,2.4514,2.4524,2.4453,2.4453,2.4454,0,2.4291,2.4311,2.4318,2.4329,2.4333,2.4351,2.4361,2.4354,2.4365,2.4375,2.439,2.4406,2.4419,2.4448,2.4449,2.4463,2.4458,2.4485,2.446,2.4462,2.4458,2.4457,2.4459,2.449,2.4491,2.4491,2.4492,0,2.4355,2.4352,2.4367,2.4382,2.4394,2.4405,2.4415,2.4424,2.4418,2.4431,2.4449,2.4459,2.4478,2.4495,2.4509,2.4512,2.4501,2.45,2.4506,2.4509,2.4509,2.4509,2.4428,2.4498,2.4497,2.4497,2.4497,2.4496,2.4401,2.4418,2.4425,2.4442,2.4449,2.4458,2.4474,2.4474,2.4489,2.4505,2.45,2.4521,2.4528,2.4545,2.455,2.4566,2.4556,2.4565,2.4567,2.4569,2.4572,2.4507,2.4568,2.4568,2.4568,2.4568,2.4568,0,2.4464,2.4468,2.4484,2.4498,2.4511,2.45,2.451,2.4522,2.454,2.4548,2.4561,2.4581,2.4597,2.4599,2.4614,2.4626,2.4621,2.463,2.4629,2.463,2.458,2.4573,2.4634,2.4634,2.4634,2.4634,2.4634,2.4634,2.4498,2.4525,2.4524,2.4554,2.4558,2.4578,2.4585,2.4593,2.46,2.4623,2.4637,2.4637,2.4643,2.4658,2.4672,2.4672,2.4678,2.4689,2.4687,2.464,2.4634,2.4627,2.4621,2.469,2.469,2.4735,2.4736,2.4736]},{"header":{"parameterUnit":"m.s-1","parameterCategory":1,"la1":30.2991,"la2":30.254,"lo1":-89.0895,"lo2":-89.0444,"dy":0.0017,"dx":0.0017,"nx":28,"ny":28,"refTime":"2023-04-02T21:00:00:Z","depth":0,"parameterNumber":3,"parameterNumberName":"V-component_of_WINDS"},"data":[0,0,0,0,0,0,0,0,0,0,0,0,0,0,0,0,0,0,0,0,0,0,0,0,0,0,0,0,0,0,0,0,0,0,0,0,0,0,0,0,0,0,0,0,0,0,0,0,0,0,0,0,0,0,0,0,0,0,5.5976,5.5976,0,5.6013,5.6014,5.6014,5.5974,5.5972,5.5971,5.5969,5.6003,5.6005,5.6007,0,0,0,0,0,0,0,0,0,0,0,0,0,5.5864,5.5867,5.5976,5.5976,5.5977,5.6013,5.6014,5.6014,5.5974,5.5972,5.5971,5.5969,5.6002,5.6005,5.6008,0,0,0,0,0,0,0,0,0,0,0,0,0,5.5908,5.5867,5.5975,5.5961,5.596,5.6013,5.6014,5.6014,5.5975,5.5972,5.597,5.5968,5.6001,5.6005,5.6008,5.6076,0,0,5.6019,5.602,0,0,0,0,0,0,0,0,5.5906,5.5912,5.5963,5.5962,5.5961,5.5987,5.5987,5.6035,5.5975,5.5969,5.5969,5.5967,5.5999,5.6003,5.6015,5.6077,5.6078,5.6019,5.6021,5.6023,5.6024,0,0,0,0,0,0,0,5.5903,5.591,5.599,5.5963,5.5963,5.5951,5.5955,5.5996,5.5996,5.5969,5.5967,5.5972,5.5998,5.6011,5.6015,5.6079,5.6019,5.6022,5.6024,5.6026,5.62,5.6203,0,0,0,0,0,0,5.5902,5.5908,5.5989,5.5991,5.5928,5.5955,5.5959,5.5981,5.5996,5.5996,5.5974,5.597,5.6006,5.6011,5.6016,5.6098,5.6023,5.6026,5.6028,5.6198,5.6201,5.6203,0,0,0,0,0,0,5.59,5.591,5.5988,5.5949,5.5958,5.596,5.5984,5.5983,5.5996,5.5999,5.5999,5.5987,5.6005,5.6011,5.6062,5.6098,5.6027,5.6031,5.6195,5.6199,5.6202,5.626,0,0,0,0,0,0,5.5897,5.5909,5.5936,5.595,5.5961,5.6034,5.5986,5.5985,5.6003,5.5998,5.6012,5.6012,5.6004,5.6057,5.6065,5.6102,5.6033,5.6191,5.6196,5.6201,5.6255,5.6265,5.6274,0,0,0,0,0,5.5893,5.5949,5.5937,5.5947,5.5994,5.6036,5.6042,5.6033,5.6006,5.6032,5.6034,5.6011,5.6092,5.6062,5.6071,5.6109,5.6189,5.6195,5.6201,5.6251,5.6263,5.6274,0,0,0,0,0,0,5.5936,5.5951,5.5938,5.6,5.6018,5.603,5.6062,5.6046,5.607,5.6065,5.605,5.6054,5.6108,5.6113,5.608,5.6176,5.6136,5.6144,5.6171,5.6183,5.6193,5.6191,5.6036,0,0,0,0,0,5.5954,5.5989,5.5998,5.6052,5.6062,5.6061,5.6079,5.6071,5.6087,5.6094,5.61,5.6115,5.6144,5.6164,5.619,5.6255,5.6258,5.6286,5.6295,5.6303,5.6311,5.6347,5.6359,5.6222,5.6222,5.6222,0,0,5.5989,5.6001,5.6023,5.6062,5.6074,5.611,5.6067,5.6106,5.6132,5.6099,5.6148,5.6153,5.6169,5.6228,5.6254,5.6234,5.6349,5.6311,5.6317,5.632,5.6354,5.6367,5.6378,5.6226,5.6226,5.6225,0,0,5.6072,5.6084,5.6132,5.6146,5.6166,5.6165,5.6177,5.6192,5.6194,5.6244,5.6221,5.625,5.63,5.6314,5.6327,5.6416,5.6397,5.6425,5.6476,5.6512,5.6522,5.6532,5.6565,5.6577,5.6432,5.6432,5.6432,0,5.6113,5.6167,5.6158,5.62,5.6217,5.6191,5.6239,5.6252,5.6279,5.6292,5.6269,5.6333,5.6342,5.6404,5.6426,5.6437,5.645,5.6424,5.6522,5.6531,5.654,5.6572,5.6584,5.6436,5.6435,5.6435,5.6435,0,5.6217,5.6255,5.629,5.6321,5.6342,5.6386,5.6383,5.6405,5.6395,5.6396,5.6447,5.6457,5.6487,5.65,5.649,5.6562,5.6549,5.6524,5.6484,5.6557,5.6587,5.6598,5.6441,5.644,5.6438,5.6438,0,0,5.6328,5.6354,5.6368,5.6382,5.6403,5.6431,5.6474,5.6505,5.6525,5.6544,5.658,5.6624,5.6602,5.6617,5.6608,5.6639,5.6711,5.661,5.6611,5.663,5.6792,5.6812,5.6826,5.6698,5.67,5.6702,5.6791,0,5.6413,5.6491,5.6484,5.6557,5.6592,5.6568,5.6605,5.6622,5.6624,5.6653,5.6655,5.6687,5.6655,5.6664,5.6694,5.6696,5.6744,5.6689,5.6731,5.6732,5.6729,5.6841,5.6862,5.6946,5.6803,5.6805,5.6806,0,5.6522,5.6549,5.6626,5.6644,5.6659,5.6693,5.6721,5.6749,5.6767,5.6767,5.6785,5.6771,5.6813,5.6771,5.683,5.6793,5.6809,5.6813,5.6816,5.6821,5.6775,5.685,5.6972,5.6986,5.6824,5.6822,5.6821,0,5.6598,5.6653,5.6707,5.6719,5.674,5.6765,5.6775,5.6791,5.681,5.6834,5.6847,5.6875,5.689,5.6912,5.6905,5.6875,5.6965,5.6923,5.6966,5.6967,5.6987,5.6986,5.7115,5.6995,5.6995,5.6995,5.6994,0,5.6695,5.6743,5.6742,5.6775,5.6828,5.682,5.6872,5.6878,5.6893,5.6926,5.6906,5.6937,5.6926,5.6956,5.695,5.7001,5.7007,5.7008,5.7006,5.7011,5.7011,5.7022,5.7017,5.6998,5.6997,5.6997,5.6996,0,5.6789,5.679,5.6847,5.6863,5.6869,5.6908,5.6921,5.6952,5.6953,5.6995,5.7004,5.7005,5.704,5.7036,5.7073,5.707,5.7133,5.7123,5.7128,5.7126,5.7171,5.7167,5.7313,5.7332,5.7198,5.7199,5.72,0,5.6851,5.6888,5.691,5.6932,5.6944,5.6979,5.7,5.6992,5.7014,5.7039,5.7067,5.71,5.7127,5.7183,5.7187,5.7216,5.7207,5.7256,5.7211,5.7216,5.721,5.7209,5.7213,5.7266,5.7267,5.7268,5.7269,0,5.6962,5.6961,5.6993,5.7026,5.7052,5.7076,5.7098,5.7117,5.7111,5.7137,5.7174,5.7194,5.7235,5.7268,5.7296,5.7304,5.7286,5.7283,5.7295,5.7301,5.7303,5.7305,5.7154,5.728,5.7279,5.7278,5.7278,5.7277,5.7043,5.7076,5.7097,5.7134,5.715,5.7172,5.7202,5.7208,5.724,5.7274,5.7266,5.7308,5.7325,5.7361,5.7373,5.7404,5.7386,5.7403,5.7407,5.7412,5.7419,5.7297,5.7409,5.7408,5.7408,5.7408,5.7408,0,5.7155,5.7168,5.7202,5.7235,5.7264,5.7246,5.727,5.7294,5.7332,5.7351,5.7378,5.7421,5.7454,5.746,5.7491,5.7516,5.7508,5.7524,5.7523,5.7526,5.7432,5.742,5.753,5.753,5.753,5.753,5.753,5.753,5.7217,5.7272,5.7274,5.7337,5.7349,5.7392,5.7407,5.7427,5.7442,5.7492,5.752,5.7524,5.7538,5.7571,5.76,5.7601,5.7614,5.7633,5.7631,5.7544,5.7532,5.752,5.7509,5.7636,5.7636,5.7722,5.7723,5.7724]}]]